When you browse on this site, cookies collect data to enhance your experience and personalize the content and advertising you see.
Visit our Privacy Policy to learn more. By continuing to use the site, you agree to this use of cookies and data.

Hourly Weather Djelfa

Today, 4 July, Saturday

Time Temperature Precipitation Wind Pressure Humidity
00:00 +26°C° 0 mm 5 mps 668 mmHg 44%
01:00 +24°C° 0 mm 6 mps 668 mmHg 46%
02:00 +23°C° 0 mm 6 mps 668 mmHg 49%
03:00 +22°C° 0 mm 6 mps 667 mmHg 52%
04:00 +22°C° 0 mm 7 mps 667 mmHg 50%
05:00 +22°C° 0 mm 7 mps 668 mmHg 47%
06:00 +22°C° 0 mm 8 mps 668 mmHg 45%
07:00 +24°C° 0 mm 8 mps 669 mmHg 37%
08:00 +26°C° 0 mm 9 mps 669 mmHg 29%
09:00 +28°C° 0 mm 9 mps 669 mmHg 21%
10:00 +29°C° 0 mm 9 mps 670 mmHg 19%
11:00 +31°C° 0 mm 8 mps 670 mmHg 17%
12:00 +33°C° 0 mm 7 mps 670 mmHg 15%
13:00 +33°C° 0 mm 7 mps 670 mmHg 15%
14:00 +33°C° 0 mm 7 mps 670 mmHg 15%
15:00 +34°C° 0 mm 8 mps 669 mmHg 15%
16:00 +33°C° 0 mm 7 mps 669 mmHg 16%
17:00 +32°C° 0 mm 6 mps 669 mmHg 17%
18:00 +32°C° 0 mm 6 mps 669 mmHg 19%
19:00 +29°C° 0 mm 6 mps 669 mmHg 21%
20:00 +27°C° 0 mm 5 mps 669 mmHg 24%
21:00 +26°C° 0 mm 5 mps 669 mmHg 26%
22:00 +25°C° 0 mm 4 mps 669 mmHg 27%
23:00 +24°C° 0 mm 3 mps 669 mmHg 27%

Tomorrow, 5 July, Sunday

Time Temperature Precipitation Wind Pressure Humidity
00:00 +22°C° 0 mm 3 mps 669 mmHg 28%
01:00 +21°C° 0 mm 3 mps 668 mmHg 28%
02:00 +21°C° 0 mm 3 mps 668 mmHg 27%
03:00 +20°C° 0 mm 3 mps 667 mmHg 27%
04:00 +20°C° 0 mm 3 mps 668 mmHg 27%
05:00 +20°C° 0 mm 3 mps 668 mmHg 26%
06:00 +20°C° 0 mm 3 mps 668 mmHg 26%
07:00 +22°C° 0 mm 4 mps 669 mmHg 23%
08:00 +25°C° 0 mm 5 mps 669 mmHg 19%
09:00 +27°C° 0 mm 6 mps 670 mmHg 15%
10:00 +28°C° 0 mm 6 mps 670 mmHg 14%
11:00 +29°C° 0 mm 6 mps 670 mmHg 12%
12:00 +32°C° 0 mm 6 mps 670 mmHg 11%
13:00 +32°C° 0 mm 7 mps 669 mmHg 10%
14:00 +33°C° 0 mm 7 mps 669 mmHg 9%
15:00 +34°C° 0 mm 7 mps 669 mmHg 9%
16:00 +34°C° 0 mm 7 mps 669 mmHg 9%
17:00 +33°C° 0 mm 7 mps 668 mmHg 10%
18:00 +32°C° 0 mm 7 mps 668 mmHg 11%
19:00 +30°C° 0 mm 6 mps 668 mmHg 13%
20:00 +28°C° 0 mm 5 mps 668 mmHg 15%
21:00 +26°C° 0 mm 4 mps 668 mmHg 17%
22:00 +25°C° 0 mm 3 mps 667 mmHg 19%
23:00 +24°C° 0 mm 3 mps 667 mmHg 21%

Day after tomorrow, 6 July, Monday

Time Temperature Precipitation Wind Pressure Humidity
00:00 +23°C° 0 mm 2 mps 666 mmHg 22%
01:00 +21°C° 0 mm 2 mps 666 mmHg 22%
02:00 +21°C° 0 mm 2 mps 666 mmHg 21%
03:00 +20°C° 0 mm 3 mps 665 mmHg 20%
04:00 +20°C° 0 mm 3 mps 665 mmHg 21%
05:00 +21°C° 0 mm 4 mps 665 mmHg 21%
06:00 +21°C° 0 mm 4 mps 666 mmHg 21%
07:00 +23°C° 0 mm 5 mps 666 mmHg 21%
08:00 +24°C° 0 mm 6 mps 667 mmHg 21%
09:00 +27°C° 0 mm 7 mps 667 mmHg 21%
10:00 +29°C° 0 mm 8 mps 667 mmHg 19%
11:00 +31°C° 0 mm 8 mps 667 mmHg 17%
12:00 +32°C° 0 mm 9 mps 667 mmHg 15%
13:00 +33°C° 0 mm 9 mps 667 mmHg 15%
14:00 +33°C° 0 mm 9 mps 667 mmHg 16%
15:00 +33°C° 0 mm 10 mps 666 mmHg 17%
16:00 +32°C° 0 mm 9 mps 666 mmHg 18%
17:00 +31°C° 0 mm 9 mps 666 mmHg 19%
18:00 +29°C° 0 mm 9 mps 666 mmHg 20%
19:00 +28°C° 0 mm 7 mps 666 mmHg 23%
20:00 +27°C° 0 mm 6 mps 666 mmHg 27%
21:00 +25°C° 0 mm 5 mps 666 mmHg 31%
22:00 +23°C° 0 mm 4 mps 666 mmHg 33%
23:00 +23°C° 0 mm 4 mps 666 mmHg 35%

7 July, Tuesday

Time Temperature Precipitation Wind Pressure Humidity
00:00 +22°C° 0 mm 3 mps 665 mmHg 37%
01:00 +21°C° 0 mm 3 mps 665 mmHg 39%
02:00 +21°C° 0 mm 2 mps 665 mmHg 40%
03:00 +20°C° 0 mm 2 mps 664 mmHg 42%
04:00 +21°C° 0 mm 2 mps 665 mmHg 42%
05:00 +22°C° 0 mm 1 mps 665 mmHg 42%
06:00 +23°C° 0 mm 1 mps 666 mmHg 41%
07:00 +25°C° 0 mm 1 mps 666 mmHg 37%
08:00 +26°C° 0 mm 2 mps 667 mmHg 32%
09:00 +28°C° 0 mm 2 mps 667 mmHg 27%
10:00 +29°C° 0 mm 3 mps 667 mmHg 25%
11:00 +32°C° 0 mm 4 mps 667 mmHg 23%
12:00 +33°C° 0 mm 5 mps 667 mmHg 21%
13:00 +34°C° 0 mm 6 mps 667 mmHg 20%
14:00 +34°C° 0 mm 6 mps 667 mmHg 18%
15:00 +35°C° 0 mm 7 mps 667 mmHg 17%
16:00 +35°C° 0 mm 6 mps 666 mmHg 17%
17:00 +34°C° 0 mm 6 mps 666 mmHg 17%
18:00 +34°C° 0 mm 6 mps 666 mmHg 16%
19:00 +32°C° 0 mm 6 mps 667 mmHg 19%
20:00 +30°C° 0 mm 5 mps 667 mmHg 22%
21:00 +29°C° 0 mm 5 mps 667 mmHg 26%
22:00 +28°C° 0 mm 4 mps 667 mmHg 27%
23:00 +27°C° 0 mm 3 mps 666 mmHg 29%

8 July, Wednesday

Time Temperature Precipitation Wind Pressure Humidity
00:00 +26°C° 0 mm 2 mps 666 mmHg 31%
01:00 +25°C° 0 mm 1 mps 666 mmHg 32%
02:00 +24°C° 0 mm 1 mps 666 mmHg 33%
03:00 +24°C° 0 mm 1 mps 665 mmHg 34%
04:00 +24°C° 0 mm 1 mps 666 mmHg 32%
05:00 +25°C° 0 mm 2 mps 666 mmHg 31%
06:00 +26°C° 0 mm 2 mps 666 mmHg 29%
07:00 +28°C° 0 mm 2 mps 667 mmHg 25%
08:00 +29°C° 0 mm 3 mps 667 mmHg 22%
09:00 +31°C° 0 mm 3 mps 668 mmHg 19%
10:00 +33°C° 0 mm 3 mps 668 mmHg 18%
11:00 +34°C° 0 mm 3 mps 668 mmHg 16%
12:00 +35°C° 0 mm 3 mps 668 mmHg 15%
13:00 +36°C° 0 mm 4 mps 667 mmHg 14%
14:00 +37°C° 0 mm 4 mps 667 mmHg 12%
15:00 +37°C° 0 mm 4 mps 667 mmHg 11%
16:00 +37°C° 0 mm 4 mps 667 mmHg 11%
17:00 +36°C° 0 mm 4 mps 667 mmHg 11%
18:00 +36°C° 0 mm 4 mps 666 mmHg 11%
19:00 +34°C° 0 mm 4 mps 666 mmHg 12%
20:00 +33°C° 0 mm 3 mps 666 mmHg 14%
21:00 +30°C° 0 mm 3 mps 667 mmHg 16%
22:00 +29°C° 0 mm 3 mps 666 mmHg 18%
23:00 +29°C° 0 mm 3 mps 666 mmHg 21%

9 July, Thursday

Time Temperature Precipitation Wind Pressure Humidity
00:00 +28°C° 0 mm 3 mps 666 mmHg 23%
01:00 +27°C° 0 mm 3 mps 665 mmHg 25%
02:00 +27°C° 0 mm 3 mps 665 mmHg 27%
03:00 +27°C° 0 mm 3 mps 665 mmHg 28%
04:00 +27°C° 0 mm 3 mps 665 mmHg 28%
05:00 +27°C° 0 mm 3 mps 666 mmHg 28%
06:00 +28°C° 0 mm 3 mps 666 mmHg 27%
07:00 +30°C° 0 mm 4 mps 666 mmHg 23%
08:00 +33°C° 0 mm 4 mps 667 mmHg 19%
09:00 +35°C° 0 mm 5 mps 667 mmHg 16%
10:00 +36°C° 0 mm 6 mps 667 mmHg 14%
11:00 +38°C° 0 mm 6 mps 667 mmHg 13%
12:00 +39°C° 0 mm 6 mps 667 mmHg 12%
13:00 +39°C° 0 mm 7 mps 667 mmHg 12%
14:00 +39°C° 0 mm 8 mps 667 mmHg 12%
15:00 +38°C° 0 mm 9 mps 666 mmHg 12%
16:00 +36°C° 0.2 mm 7 mps 666 mmHg 15%
17:00 +35°C° 0.2 mm 5 mps 666 mmHg 17%
18:00 +33°C° 0.2 mm 4 mps 666 mmHg 20%
19:00 +31°C° 0 mm 3 mps 666 mmHg 24%
20:00 +30°C° 0 mm 3 mps 666 mmHg 28%
21:00 +28°C° 0 mm 3 mps 666 mmHg 32%
22:00 +27°C° 0 mm 3 mps 666 mmHg 34%
23:00 +27°C° 0 mm 2 mps 666 mmHg 36%
Show more